When you browse on this site, cookies collect data to enhance your experience and personalize the content and advertising you see.
Visit our Privacy Policy to learn more. By continuing to use the site, you agree to this use of cookies and data.
  • In Hungary
  • List of Countries
  • For 7 days
  • Water Temperature
  • Weather Map
  • News
  • Weather Widgets
  • user-avatar
    Login

    Hourly Weather Phenian

    Today, 12 November, Tuesday

    Time Temperature Precipitation Wind Pressure Humidity
    00:00 +8°C° 0 mm 1 mps 762 mmHg 62%
    01:00 +7°C° 0 mm 1 mps 762 mmHg 63%
    02:00 +7°C° 0 mm 1 mps 762 mmHg 64%
    03:00 +7°C° 0 mm 1 mps 763 mmHg 66%
    04:00 +6°C° 0 mm 1 mps 763 mmHg 67%
    05:00 +5°C° 0 mm 0 mps 763 mmHg 69%
    06:00 +6°C° 0 mm 0 mps 763 mmHg 66%
    07:00 +7°C° 0 mm 1 mps 764 mmHg 64%
    08:00 +8°C° 0 mm 1 mps 764 mmHg 61%
    09:00 +10°C° 0 mm 1 mps 764 mmHg 54%
    10:00 +11°C° 0 mm 1 mps 764 mmHg 48%
    11:00 +12°C° 0 mm 0 mps 764 mmHg 42%
    12:00 +13°C° 0 mm 1 mps 764 mmHg 39%
    13:00 +14°C° 0 mm 1 mps 763 mmHg 36%
    14:00 +14°C° 0 mm 1 mps 763 mmHg 33%
    15:00 +13°C° 0 mm 1 mps 763 mmHg 36%
    16:00 +12°C° 0 mm 1 mps 763 mmHg 40%
    17:00 +11°C° 0 mm 1 mps 763 mmHg 43%
    18:00 +10°C° 0 mm 1 mps 764 mmHg 45%
    19:00 +10°C° 0 mm 1 mps 764 mmHg 46%
    20:00 +10°C° 0 mm 1 mps 764 mmHg 47%
    21:00 +9°C° 0 mm 1 mps 764 mmHg 50%
    22:00 +9°C° 0 mm 1 mps 764 mmHg 52%
    23:00 +9°C° 0 mm 1 mps 764 mmHg 54%

    Tomorrow, 13 November, Wednesday

    Time Temperature Precipitation Wind Pressure Humidity
    00:00 +8°C° 0 mm 2 mps 764 mmHg 54%
    01:00 +8°C° 0 mm 2 mps 763 mmHg 54%
    02:00 +8°C° 0 mm 2 mps 763 mmHg 55%
    03:00 +8°C° 0 mm 2 mps 762 mmHg 55%
    04:00 +8°C° 0 mm 2 mps 762 mmHg 56%
    05:00 +8°C° 0 mm 2 mps 761 mmHg 56%
    06:00 +9°C° 0.1 mm 3 mps 760 mmHg 58%
    07:00 +8°C° 0.1 mm 4 mps 760 mmHg 60%
    08:00 +10°C° 0.1 mm 4 mps 759 mmHg 61%
    09:00 +10°C° 1.5 mm 5 mps 759 mmHg 72%
    10:00 +10°C° 1.5 mm 5 mps 758 mmHg 83%
    11:00 +10°C° 1.5 mm 5 mps 757 mmHg 94%
    12:00 +9°C° 2.3 mm 6 mps 757 mmHg 88%
    13:00 +8°C° 2.3 mm 6 mps 757 mmHg 81%
    14:00 +5°C° 2.3 mm 7 mps 756 mmHg 74%
    15:00 +5°C° 0 mm 7 mps 757 mmHg 72%
    16:00 +4°C° 0 mm 7 mps 758 mmHg 69%
    17:00 +3°C° 0 mm 7 mps 758 mmHg 66%
    18:00 +2°C° 0 mm 7 mps 760 mmHg 61%
    19:00 0°C° 0 mm 8 mps 761 mmHg 55%
    20:00 -3°C° 0 mm 9 mps 762 mmHg 50%
    21:00 -4°C° 0 mm 8 mps 763 mmHg 47%
    22:00 -4°C° 0 mm 7 mps 763 mmHg 45%
    23:00 -4°C° 0 mm 7 mps 764 mmHg 42%

    Day after tomorrow, 14 November, Thursday

    Time Temperature Precipitation Wind Pressure Humidity
    00:00 -5°C° 0 mm 6 mps 765 mmHg 40%
    01:00 -5°C° 0 mm 6 mps 765 mmHg 38%
    02:00 -5°C° 0 mm 6 mps 765 mmHg 37%
    03:00 -6°C° 0 mm 5 mps 766 mmHg 35%
    04:00 -6°C° 0 mm 5 mps 766 mmHg 33%
    05:00 -6°C° 0 mm 5 mps 766 mmHg 32%
    06:00 -6°C° 0 mm 5 mps 767 mmHg 30%
    07:00 -6°C° 0 mm 5 mps 767 mmHg 27%
    08:00 -6°C° 0 mm 5 mps 768 mmHg 25%
    09:00 -5°C° 0 mm 5 mps 767 mmHg 25%
    10:00 -4°C° 0 mm 5 mps 767 mmHg 24%
    11:00 -2°C° 0 mm 5 mps 767 mmHg 23%
    12:00 -2°C° 0 mm 4 mps 766 mmHg 24%
    13:00 0°C° 0 mm 3 mps 765 mmHg 25%
    14:00 0°C° 0 mm 3 mps 765 mmHg 26%
    15:00 -1°C° 0 mm 2 mps 765 mmHg 30%
    16:00 +1°C° 0 mm 1 mps 764 mmHg 34%
    17:00 -1°C° 0 mm 0 mps 764 mmHg 37%
    18:00 0°C° 0 mm 1 mps 764 mmHg 38%
    19:00 -2°C° 0 mm 2 mps 764 mmHg 38%
    20:00 -2°C° 0 mm 2 mps 764 mmHg 39%
    21:00 -1°C° 0.1 mm 2 mps 764 mmHg 46%
    22:00 -1°C° 0.1 mm 3 mps 763 mmHg 53%
    23:00 0°C° 0.1 mm 3 mps 762 mmHg 60%

    15 November, Friday

    Time Temperature Precipitation Wind Pressure Humidity
    00:00 0°C° 0.2 mm 3 mps 762 mmHg 67%
    01:00 +1°C° 0.2 mm 3 mps 761 mmHg 75%
    02:00 +2°C° 0.2 mm 2 mps 760 mmHg 82%
    03:00 +2°C° 0 mm 2 mps 760 mmHg 84%
    04:00 +2°C° 0 mm 2 mps 760 mmHg 87%
    05:00 +2°C° 0 mm 2 mps 760 mmHg 89%
    06:00 +2°C° 0 mm 2 mps 760 mmHg 86%
    07:00 +2°C° 0 mm 2 mps 760 mmHg 83%
    08:00 +2°C° 0 mm 2 mps 761 mmHg 81%
    09:00 +4°C° 0 mm 2 mps 761 mmHg 70%
    10:00 +5°C° 0 mm 2 mps 761 mmHg 60%
    11:00 +7°C° 0 mm 3 mps 761 mmHg 50%
    12:00 +7°C° 0 mm 3 mps 761 mmHg 45%
    13:00 +7°C° 0 mm 3 mps 761 mmHg 40%
    14:00 +7°C° 0 mm 3 mps 761 mmHg 35%
    15:00 +5°C° 0 mm 3 mps 761 mmHg 38%
    16:00 +4°C° 0 mm 2 mps 761 mmHg 41%
    17:00 +3°C° 0 mm 2 mps 762 mmHg 44%
    18:00 +4°C° 0 mm 1 mps 761 mmHg 61%
    19:00 +4°C° 0 mm 1 mps 762 mmHg 60%
    20:00 +4°C° 0 mm 1 mps 762 mmHg 59%
    21:00 +3°C° 0 mm 1 mps 762 mmHg 58%
    22:00 +3°C° 0 mm 1 mps 763 mmHg 58%
    23:00 +2°C° 0 mm 1 mps 763 mmHg 57%

    16 November, Saturday

    Time Temperature Precipitation Wind Pressure Humidity
    00:00 +2°C° 0 mm 1 mps 763 mmHg 57%
    01:00 +2°C° 0 mm 1 mps 763 mmHg 57%
    02:00 +2°C° 0 mm 1 mps 763 mmHg 56%
    03:00 +1°C° 0 mm 1 mps 763 mmHg 56%
    04:00 +1°C° 0 mm 1 mps 763 mmHg 56%
    05:00 +1°C° 0 mm 1 mps 763 mmHg 56%
    06:00 +2°C° 0 mm 1 mps 764 mmHg 54%
    07:00 +3°C° 0 mm 1 mps 764 mmHg 52%
    08:00 +4°C° 0 mm 1 mps 765 mmHg 49%
    09:00 +5°C° 0 mm 1 mps 765 mmHg 44%
    10:00 +7°C° 0 mm 1 mps 764 mmHg 39%
    11:00 +9°C° 0 mm 1 mps 764 mmHg 34%
    12:00 +9°C° 0 mm 1 mps 764 mmHg 34%
    13:00 +10°C° 0 mm 1 mps 764 mmHg 33%
    14:00 +10°C° 0 mm 2 mps 764 mmHg 32%
    15:00 +9°C° 0 mm 1 mps 764 mmHg 36%
    16:00 +8°C° 0 mm 1 mps 764 mmHg 40%
    17:00 +7°C° 0 mm 1 mps 764 mmHg 45%
    18:00 +7°C° 0 mm 1 mps 764 mmHg 45%
    19:00 +7°C° 0 mm 1 mps 764 mmHg 45%
    20:00 +7°C° 0 mm 1 mps 764 mmHg 45%
    21:00 +7°C° 0 mm 1 mps 764 mmHg 45%
    22:00 +6°C° 0 mm 1 mps 764 mmHg 46%
    23:00 +6°C° 0 mm 1 mps 764 mmHg 46%

    17 November, Sunday

    Time Temperature Precipitation Wind Pressure Humidity
    00:00 +6°C° 0 mm 1 mps 764 mmHg 47%
    01:00 +6°C° 0 mm 1 mps 764 mmHg 48%
    02:00 +6°C° 0 mm 1 mps 764 mmHg 49%
    03:00 +6°C° 0 mm 1 mps 764 mmHg 49%
    04:00 +6°C° 0 mm 1 mps 764 mmHg 49%
    05:00 +6°C° 0 mm 2 mps 763 mmHg 48%
    06:00 +6°C° 0.1 mm 2 mps 763 mmHg 51%
    07:00 +6°C° 0.1 mm 2 mps 763 mmHg 53%
    08:00 +7°C° 0.1 mm 2 mps 763 mmHg 56%
    09:00 +7°C° 0.1 mm 2 mps 763 mmHg 59%
    10:00 +9°C° 0.1 mm 1 mps 762 mmHg 62%
    11:00 +9°C° 0.1 mm 1 mps 761 mmHg 65%
    12:00 +8°C° 1.3 mm 2 mps 761 mmHg 73%
    13:00 +7°C° 1.3 mm 2 mps 760 mmHg 82%
    14:00 +7°C° 1.3 mm 2 mps 759 mmHg 90%
    15:00 +5°C° 2.7 mm 3 mps 758 mmHg 92%
    16:00 +5°C° 2.7 mm 3 mps 758 mmHg 93%
    17:00 +5°C° 2.7 mm 4 mps 757 mmHg 95%
    18:00 +5°C° 2.3 mm 3 mps 757 mmHg 94%
    19:00 +5°C° 2.3 mm 3 mps 757 mmHg 94%
    20:00 +6°C° 2.3 mm 2 mps 757 mmHg 93%
    21:00 +5°C° 0.1 mm 3 mps 757 mmHg 92%
    22:00 +5°C° 0.1 mm 4 mps 757 mmHg 90%
    23:00 +5°C° 0.1 mm 5 mps 757 mmHg 88%
    Show more